Dewpoint
55 55 55 55 55 56 56 56 56 56 57 57 57 58 58 59 58 59 59 58 58 58 57 58 58 57 58 58 58 58 58 55 53 50 50 46 50 52 65 58 63 65 66 55 45 48 49 45 45 47 47 48 49 56 61 64 65 65 60 57 55 57 57 59 58 59 61 62 64 65 66 65 64 66 68 69 67 67 67 67 65 66 64 63 63 64 64 64
55 55 55 55 55 56 56 56 56 56 56 57 57 58 58 58 58 58 58 58 58 57 57 57 57 57 57 57 58 58 57 53 51 51 49 52 57 57 59 65 68 67 64 47 38 41 38 38 42 46 46 47 50 52 57 57 64 61 59 57 55 57 58 62 61 61 61 63 64 65 67 65 64 66 68 65 64 65 64 65 66 65 62 62 62 63 63 63
55 55 55 55 55 55 56 56 56 56 56 56 57 57 58 58 58 59 58 58 58 57 57 57 57 57 57 57 58 59 56 53 51 50 49 63 59 58 60 66 71 67 57 44 36 38 36 37 42 46 46 46 49 49 54 55 62 62 58 56 57 59 61 64 63 64 64 64 64 65 66 66 67 67 69 65 64 64 64 64 64 61 60 61 61 62 62 62
55 54 54 55 54 55 55 56 56 56 56 56 57 57 57 57 57 58 58 57 57 57 57 57 57 57 57 58 58 56 55 51 47 48 50 67 64 64 65 67 68 65 52 43 36 34 37 41 43 46 47 46 48 50 52 57 59 60 58 54 55 58 58 62 64 64 65 67 65 66 66 66 67 68 67 66 64 63 65 66 62 60 60 60 61 61 61 62
54 54 54 54 55 55 55 55 56 56 56 56 56 57 57 57 57 57 57 57 57 57 58 57 57 57 58 58 58 55 51 40 45 48 53 71 69 69 68 70 68 59 47 40 39 35 38 36 43 47 47 47 48 49 50 54 59 58 57 56 56 61 57 63 63 64 64 65 67 66 65 65 69 68 67 65 63 63 66 66 67 64 61 60 60 60 61 61
54 54 54 54 54 55 55 55 55 56 56 56 56 57 57 57 57 57 57 57 57 58 59 58 58 58 58 59 56 55 48 26 36 49 70 72 66 67 68 71 68 51 42 36 33 33 32 33 37 40 47 48 48 48 50 51 57 53 55 56 54 59 61 62 63 65 65 66 66 65 67 68 66 66 67 66 65 66 69 70 67 66 61 60 60 60 60 60
54 54 54 54 55 55 55 54 55 55 55 56 56 56 56 56 56 56 57 57 57 58 59 60 59 58 58 58 55 52 47 42 45 44 69 72 68 66 69 68 66 48 40 34 32 29 30 33 37 38 45 48 49 49 50 48 50 49 46 51 54 58 60 62 63 64 64 65 65 68 67 66 66 64 67 66 68 68 69 70 68 67 67 60 59 60 59 60
54 54 54 54 54 55 55 55 55 55 55 56 56 56 56 56 56 56 57 57 57 59 60 60 60 59 59 56 51 48 48 46 47 46 71 71 69 68 67 62 62 47 39 33 30 29 30 31 34 39 40 48 49 49 48 47 46 45 46 46 48 56 61 62 63 63 63 64 67 66 65 65 66 66 65 65 67 67 69 69 67 68 67 60 59 59 59 59
54 54 54 54 54 54 55 55 55 55 55 55 55 55 55 56 56 56 56 56 57 58 60 60 59 59 59 55 44 37 37 44 48 45 69 66 64 65 60 58 59 48 43 36 31 29 30 32 35 40 42 45 49 46 46 45 42 43 43 44 45 55 59 61 62 62 64 65 65 64 65 66 67 68 65 68 66 67 69 68 66 66 65 60 59 59 59 59
54 54 54 54 54 54 55 55 55 55 55 55 55 55 55 55 56 56 56 56 57 58 60 60 60 59 55 52 46 36 33 37 44 59 64 66 65 61 55 55 55 47 42 41 35 30 29 34 37 41 42 44 47 46 47 44 40 37 34 33 37 53 57 62 63 64 63 63 64 63 63 65 67 64 62 67 69 67 68 67 65 63 62 59 59 59 59 59
54 54 54 54 54 54 55 54 55 55 55 55 55 55 55 55 55 55 56 56 56 58 60 60 59 58 51 49 41 31 39 38 48 61 61 64 63 58 54 56 52 45 41 39 38 33 30 32 39 42 42 44 44 42 43 41 38 32 30 28 27 55 57 63 63 63 63 62 63 63 64 65 66 66 64 64 66 66 67 65 64 62 60 59 59 60 60 59
53 54 54 54 54 54 55 55 55 55 55 54 54 55 55 55 55 55 56 56 56 58 61 59 60 55 52 46 41 39 44 38 31 57 61 64 61 57 55 56 52 44 39 36 37 36 33 32 41 40 40 42 42 42 41 36 33 31 28 25 27 53 57 62 61 62 62 61 62 64 63 63 64 62 63 64 67 66 65 64 63 61 60 59 59 60 60 59
53 54 53 54 54 54 54 55 55 55 54 54 54 54 54 54 55 55 55 56 56 59 60 60 60 56 52 45 45 44 43 42 40 38 61 62 61 57 54 55 52 45 40 36 34 35 34 35 38 39 39 39 39 38 34 37 32 32 27 24 26 39 54 59 61 62 60 61 63 60 54 57 61 62 64 65 66 64 64 62 61 60 60 59 59 60 61 60
53 53 53 54 54 54 54 55 55 54 54 54 54 54 54 54 55 55 56 56 57 57 60 60 58 55 51 47 48 49 46 46 44 32 23 38 49 55 57 55 51 46 39 36 34 32 33 35 37 38 36 35 36 40 38 36 34 29 28 24 22 23 39 58 58 58 60 62 63 57 51 54 59 62 63 64 65 63 63 61 60 60 60 59 59 60 61 60
53 53 53 53 54 54 54 54 54 54 54 54 53 53 54 53 54 55 56 57 57 58 61 60 58 52 51 50 51 51 64 45 31 26 25 22 34 41 46 53 49 44 39 36 34 33 33 32 31 30 31 41 39 36 33 31 30 29 24 21 21 21 23 56 58 58 59 62 62 56 51 52 56 60 62 63 64 63 63 60 60 60 60 59 60 60 61 60
53 53 53 53 53 54 54 54 54 54 54 53 52 53 54 54 55 56 57 57 58 59 60 56 55 52 49 46 45 54 37 30 30 29 27 20 23 31 35 44 46 42 38 36 35 33 34 38 41 41 39 39 37 34 30 29 29 27 24 24 22 23 22 36 57 58 60 61 60 57 50 56 55 58 61 62 62 62 62 59 60 60 61 60 60 61 61 62
53 53 52 53 54 54 54 54 54 54 53 52 52 53 54 55 56 56 58 58 60 58 54 50 54 52 45 44 48 43 31 30 28 22 24 23 18 20 27 38 41 37 35 36 34 35 38 42 43 40 38 34 33 33 31 30 29 28 24 22 22 20 22 22 45 57 59 60 58 58 53 53 56 57 62 62 62 62 61 59 59 60 60 60 60 61 61 62
53 53 53 53 54 54 54 53 53 53 52 52 52 52 50 55 58 59 59 58 54 53 50 50 51 48 42 48 40 36 28 21 20 21 20 26 18 20 23 36 42 41 36 37 42 37 42 42 40 34 33 34 32 31 29 28 27 27 27 24 21 21 21 21 34 54 58 58 57 56 53 52 57 58 62 63 62 61 61 59 59 59 60 60 60 61 61 61
52 53 53 53 54 54 53 54 53 52 52 52 52 54 54 54 54 52 50 50 50 50 46 48 49 36 21 30 41 36 22 20 24 23 21 21 27 23 24 32 40 40 41 40 40 40 42 41 40 38 32 31 31 30 28 28 26 26 26 23 20 18 18 18 21 55 57 54 54 54 51 52 56 58 61 62 61 61 60 60 59 59 60 60 61 61 61 61
52 53 53 53 53 53 54 53 52 51 51 50 47 45 37 27 25 39 41 49 48 37 39 41 49 45 43 42 20 15 20 25 20 19 21 24 23 22 24 27 39 39 37 37 39 40 39 38 36 35 34 30 30 30 29 29 29 29 29 27 24 19 16 14 16 54 56 52 51 51 50 54 56 58 61 61 60 60 60 59 59 59 59 60 60 60 61 61
53 53 53 53 53 53 53 52 52 51 50 49 48 39 27 27 25 23 26 27 29 34 37 35 35 40 39 29 14 16 11 12 19 19 18 33 20 19 20 26 36 35 35 36 38 42 38 37 36 35 34 32 29 29 29 29 29 28 28 26 24 22 20 19 18 49 54 51 50 51 51 54 56 58 60 61 60 59 59 59 58 58 59 59 60 60 60 61
53 53 53 53 53 53 52 52 51 50 50 48 48 36 35 29 28 28 28 25 27 28 26 26 26 23 22 20 15 14 13 14 9 11 22 24 20 16 26 32 36 34 35 36 36 37 36 35 35 35 34 32 31 30 29 28 27 27 27 26 23 21 18 18 17 33 52 50 49 50 51 54 57 58 60 60 59 59 59 59 59 59 59 59 59 60 60 60
52 52 53 53 53 52 51 51 50 50 49 43 36 34 36 29 33 32 30 28 27 29 28 27 24 22 19 14 13 14 10 10 9 12 21 25 20 20 30 30 35 35 35 35 34 33 34 33 34 34 33 32 31 30 30 29 28 27 26 23 21 21 18 15 16 13 47 50 50 51 50 54 56 59 60 59 59 58 59 59 60 60 59 59 59 60 60 60
52 53 53 53 52 52 52 50 50 48 42 40 39 36 35 33 32 29 27 27 25 25 26 26 27 19 12 11 12 8 8 12 11 18 34 24 21 25 30 30 31 33 33 34 33 31 32 32 33 33 32 32 31 31 30 29 26 22 22 22 20 18 17 16 16 17 20 46 53 54 53 54 56 56 58 59 59 59 59 59 59 60 60 60 60 60 60 60
53 53 53 53 52 51 50 50 43 39 41 41 37 32 32 37 38 30 27 27 27 25 29 28 27 21 17 18 18 12 14 12 9 20 34 20 21 22 23 26 30 28 28 32 33 31 30 31 31 31 30 30 30 29 28 27 24 21 17 17 18 18 17 16 17 14 12 16 48 51 49 50 55 56 57 58 58 58 59 58 59 60 60 61 60 60 61 60
53 53 53 53 52 51 50 42 41 42 41 38 38 37 35 35 36 35 31 27 21 25 23 22 17 15 19 13 14 13 8 8 11 14 28 18 33 20 23 20 28 27 26 25 29 30 30 30 29 28 30 29 28 27 26 23 21 18 17 17 16 16 16 16 16 15 18 27 39 32 48 44 52 54 55 57 57 57 58 59 59 60 61 61 61 61 61 61
53 53 53 52 52 50 42 39 43 43 39 37 39 40 36 36 44 35 34 30 23 23 19 16 12 14 17 16 15 12 7 11 16 19 17 28 20 27 17 18 19 25 27 22 30 24 27 28 27 26 27 28 27 25 24 21 18 17 19 18 19 18 16 16 15 12 19 23 41 35 39 44 48 52 55 56 56 56 57 58 59 59 61 62 62 61 61 61
53 53 52 52 51 50 47 46 45 42 40 40 41 40 39 38 38 34 32 25 20 21 14 21 18 17 16 25 12 8 12 13 13 16 19 21 21 19 17 16 15 15 16 16 16 23 23 22 24 25 24 23 25 25 24 22 19 20 21 19 18 18 18 17 15 13 13 9 14 18 24 42 45 49 54 55 54 54 55 57 58 59 61 62 62 62 61 61
53 53 52 52 50 50 49 48 46 43 43 42 42 40 39 37 34 28 26 24 23 22 20 14 17 20 15 15 12 11 12 15 10 14 21 18 22 17 16 17 17 12 13 15 14 15 19 23 17 18 19 19 20 22 23 22 20 20 20 20 22 22 19 20 20 20 25 13 17 19 12 14 29 45 52 54 54 54 54 55 58 59 61 62 62 62 62 61
53 53 52 51 49 48 49 49 46 44 43 44 42 41 40 35 33 33 28 21 20 21 16 16 17 13 15 12 12 13 11 11 10 23 18 17 19 15 17 17 15 13 12 15 12 10 12 25 25 25 20 20 21 19 21 21 21 22 20 18 19 21 23 30 30 32 25 15 20 16 10 8 8 39 50 52 53 54 54 54 57 59 60 62 62 62 62 61
52 51 51 51 48 46 46 42 42 43 44 42 41 40 36 35 34 28 25 15 21 14 16 17 14 15 11 12 10 12 11 13 14 14 10 11 14 16 16 12 13 12 15 14 8 9 10 13 13 16 24 20 21 19 20 19 19 18 21 19 20 21 24 28 28 30 17 22 29 21 10 6 9 22 49 52 54 54 54 53 55 57 60 62 62 62 62 62
51 50 51 50 49 49 45 37 37 39 40 41 41 35 32 29 29 29 26 21 16 14 14 13 15 13 12 12 10 9 10 10 14 10 7 8 13 12 14 15 21 11 16 14 7 9 5 5 13 13 27 20 20 21 19 19 18 17 20 24 18 23 19 18 19 15 15 15 23 20 15 16 14 23 47 51 52 53 53 54 56 57 59 61 62 62 62 62
50 50 49 50 51 49 49 44 43 44 43 42 38 34 31 30 22 27 21 16 13 17 12 21 13 15 15 9 9 14 12 7 10 11 11 10 8 17 21 19 19 13 14 25 18 15 15 15 10 7 14 21 20 20 18 17 17 16 17 25 19 16 16 14 23 21 20 19 23 17 17 20 23 17 39 50 52 52 53 53 55 57 59 61 62 62 62 61
50 50 49 50 50 49 49 50 47 46 43 44 33 33 34 27 27 27 18 19 17 16 15 12 11 12 13 10 11 13 8 9 9 9 10 16 18 19 21 19 18 18 19 22 16 17 14 15 17 10 10 14 14 15 17 17 17 19 19 19 22 23 17 16 19 13 13 15 19 20 15 22 11 19 26 49 51 52 52 53 53 55 58 61 62 62 62 61
49 49 49 50 51 51 50 50 49 48 44 38 30 31 29 24 24 17 20 18 17 15 14 12 10 9 9 12 14 12 12 11 10 11 19 20 19 20 18 17 18 18 21 21 23 27 16 14 18 16 16 15 10 12 11 18 21 19 18 20 19 20 26 16 26 22 26 22 19 24 19 26 14 27 27 41 49 51 52 52 53 53 56 60 61 62 61 61
49 50 50 49 51 51 51 51 49 45 40 30 32 29 16 23 18 16 20 19 16 13 14 9 12 10 10 9 14 12 14 13 11 9 19 19 19 19 19 18 17 16 17 18 21 15 19 16 18 14 17 11 11 12 9 19 20 24 18 18 17 21 16 24 33 25 26 21 16 33 21 21 23 20 17 16 16 41 49 50 51 52 54 58 60 61 61 60
48 50 49 50 49 49 49 49 47 44 37 32 32 27 32 20 17 16 24 11 11 13 12 11 11 11 10 10 11 12 12 12 11 9 15 16 20 19 19 19 19 17 16 19 21 17 15 13 14 17 10 13 16 11 14 17 20 19 17 18 20 19 22 21 14 25 22 17 21 25 22 24 20 20 26 16 13 9 43 49 50 51 54 57 59 59 60 59
49 49 53 51 50 43 48 48 43 38 34 33 35 31 19 15 17 13 13 13 14 12 10 12 13 15 12 13 13 15 15 12 13 10 16 21 18 20 19 19 20 19 19 18 19 16 18 13 14 13 17 18 15 12 15 17 18 16 15 22 18 21 16 28 24 15 15 19 19 21 24 28 25 22 25 17 13 11 31 45 48 51 55 57 57 58 59 59
50 49 47 46 41 34 34 33 32 31 34 34 30 33 23 16 18 18 20 17 15 15 11 14 15 18 16 16 17 18 17 14 15 14 16 18 21 20 20 20 19 20 20 24 22 24 20 13 14 16 18 16 13 17 17 16 17 16 15 14 20 21 22 21 22 25 22 20 21 19 25 20 27 23 24 21 22 20 15 46 48 51 56 57 57 57 57 57
47 43 42 42 35 37 44 44 37 36 34 29 24 20 21 18 19 20 21 21 14 14 14 16 18 18 18 18 19 19 18 16 16 17 18 19 19 22 23 24 21 20 21 26 25 26 23 21 14 14 18 15 15 17 17 15 13 11 10 13 17 21 23 20 25 19 21 22 20 22 19 28 28 32 38 40 45 46 36 44 48 51 55 57 57 57 57 57
49 42 42 38 33 38 35 34 32 33 31 23 20 21 21 19 20 20 20 20 19 18 17 18 19 19 20 20 19 20 19 17 17 18 20 23 23 21 25 24 24 21 23 25 26 26 27 25 20 19 18 16 17 19 18 16 14 11 11 16 23 20 20 19 18 26 21 18 20 18 19 28 35 41 42 45 47 45 38 42 46 50 54 56 57 57 57 57
47 34 26 33 35 35 31 28 31 33 22 20 20 21 25 28 19 19 18 18 19 18 20 19 20 20 20 20 23 21 21 19 19 19 25 25 26 25 26 26 25 25 24 25 26 27 31 32 25 21 22 20 22 22 20 17 23 17 24 23 20 22 23 24 19 23 25 22 30 26 21 29 34 38 44 48 48 47 45 46 46 48 52 56 57 57 57 57
44 43 45 48 43 32 28 27 37 33 20 20 20 18 17 17 18 18 17 20 20 22 20 21 22 21 19 20 20 21 21 20 21 19 21 26 27 26 26 26 25 25 25 26 26 24 34 26 21 20 25 24 21 19 26 27 25 24 23 23 16 16 18 21 24 25 25 26 28 24 24 25 29 32 37 49 49 48 48 47 48 50 51 56 57 58 57 57
45 46 46 46 33 28 24 24 27 26 26 20 18 16 17 17 18 17 17 23 25 24 20 20 22 23 22 22 21 21 23 23 25 24 24 29 28 29 27 27 26 24 26 29 29 25 22 28 25 24 20 16 13 19 28 28 23 22 21 20 16 16 16 18 27 32 30 29 29 25 20 28 29 33 34 48 49 49 50 51 51 50 51 49 57 58 58 58
46 47 47 44 37 25 24 27 28 26 25 22 19 18 19 19 20 18 20 22 25 26 25 24 26 26 25 26 23 24 24 22 26 30 28 31 32 31 28 28 28 24 28 34 36 31 25 28 26 21 19 16 13 21 26 23 21 19 20 17 16 15 15 17 23 28 24 31 33 29 31 30 29 30 30 46 49 50 52 52 53 54 56 55 52 56 58 59
42 34 32 32 32 26 26 30 26 25 25 30 27 24 19 21 21 19 21 25 26 27 28 28 28 27 28 27 27 27 27 28 27 30 31 33 32 32 31 29 28 27 33 36 37 31 28 30 28 27 24 21 22 27 25 24 18 14 14 14 14 15 15 17 29 30 23 28 27 32 33 27 26 25 28 47 49 50 51 52 52 53 56 59 56 56 57 60
44 30 31 30 32 27 26 26 27 27 27 30 26 24 20 18 22 22 26 27 31 29 29 30 31 29 30 29 30 28 29 28 32 30 31 33 34 32 34 32 29 34 36 33 35 30 30 23 25 29 26 23 22 23 18 17 14 13 13 12 14 15 17 17 21 20 29 25 24 38 35 26 24 26 36 47 50 51 52 52 51 52 53 58 60 62 65 61
35 38 37 39 28 25 28 26 28 29 31 28 28 29 20 21 18 21 25 29 31 32 33 34 32 30 31 30 31 30 31 31 31 28 32 34 31 33 31 33 29 37 34 26 33 28 28 24 24 23 20 19 18 17 18 17 16 14 13 13 13 15 17 14 18 18 23 24 21 29 33 30 27 34 49 50 51 53 52 55 54 52 52 53 56 59 61 62
41 42 40 41 30 30 31 30 29 27 29 35 34 27 24 20 21 21 23 28 32 31 34 31 33 33 30 33 33 29 31 27 28 33 31 30 30 32 32 33 32 29 29 27 29 34 27 26 29 26 25 24 22 20 20 19 17 15 14 12 12 13 13 13 14 14 15 23 27 28 34 32 34 49 51 50 51 52 53 56 57 53 51 52 52 53 54 56
43 41 41 44 43 34 33 29 30 27 26 34 30 26 30 23 23 22 25 30 31 33 33 35 31 31 33 32 33 31 33 33 31 29 34 30 28 33 32 31 26 32 29 28 30 32 26 28 29 26 26 25 24 25 22 23 24 22 17 14 13 13 12 12 12 13 23 23 31 26 31 36 44 50 52 51 49 50 52 52 56 54 51 51 51 51 52 54
46 47 46 42 40 36 35 32 31 29 27 28 29 31 33 26 27 26 26 30 29 31 33 29 34 32 32 33 34 34 35 34 34 32 30 30 26 34 29 33 31 30 32 29 30 35 30 29 31 30 25 23 25 25 25 25 25 22 20 22 16 12 12 13 15 18 16 18 19 22 33 38 46 49 52 50 48 48 50 53 52 55 51 51 51 51 51 52
47 48 49 44 37 41 30 32 31 30 27 30 37 34 32 30 25 25 29 35 29 33 31 30 33 31 34 33 33 33 33 30 29 27 27 25 25 26 29 29 28 29 29 29 34 33 32 31 27 28 24 25 27 25 25 26 22 17 20 17 19 17 14 12 13 18 23 30 27 25 40 43 48 50 48 49 47 47 48 50 53 54 54 51 50 50 50 51